Location: Baldy Mesa Community Building
(34.4631°N, 117.4467°W)
Time: 09:58:44
(UTC+00:00)

Daily predictions for brighter satellites

Satellite Brightness Start Highest point End
(mag) Time Altitude Azimuth Time Altitude Azimuth Time Altitude Azimuth
DMSP B5D2-2 4.1 12:02:04 10° S 12:07:14 65° WSW 12:12:27 10° NNW
Lacrosse 5 rocket 1.0 12:07:21 10° NW 12:11:16 76° SW 12:14:59 10° SSE
Nadezhda 3 Rocket 4.2 12:06:24 10° NNW 12:12:34 54° W 12:18:40 10° SSW
H-2A R/B 4.5 12:10:19 10° NE 12:13:05 27° E 12:15:50 10° SSE
RESURS DK-1 2.3 12:09:04 10° NNW 12:13:06 66° WSW 12:17:06 10° SSE
ATLAS CENTAUR R/B 1.4 12:10:05 10° SSW 12:13:31 61° ESE 12:16:58 10° NE
Cosmos 2341 Rocket 4.1 12:07:31 10° S 12:13:48 87° E 12:20:05 10° N
CBERS-1 4.2 12:10:06 10° NNE 12:15:13 79° ESE 12:20:19 10° S
Cosmos 2322 Rocket 3.1 12:11:51 10° NW 12:16:35 28° WSW 12:21:18 10° SSW
IRS-1D 4.3 12:12:24 10° N 12:17:15 37° WNW 12:22:04 10° SW
OAO 3 Rocket 3.2 12:12:49 10° W 12:17:43 88° S 12:22:33 10° E
Iridium 921 4.4 12:14:27 10° S 12:17:52 89° E 12:21:20 10° N
Cosmos 2297 Rocket 3.2 12:13:49 10° S 12:19:11 47° ESE 12:24:35 10° NNE
ASTEX 1 4.0 12:16:14 10° SSW 12:20:47 37° W 12:25:22 10° NNW
